Location: Houhaj�rvi
(61.2833°N, 23.0000°E)
Time: 01:31:44
(UTC+00:00)

CZ-2D R/B - Pass Details

Date: 27 February 2020
Orbit: 792 x 845 km, 98.7° (Epoch: 03 April)

Event Time Altitude Azimuth Distance (km) Brightness Sun altitude
Rises 23:02:46 0° 21° (NNE) 3,316 6.2 -36.8°
Reaches altitude 10° 23:05:35 10° 35° (NE) 2,386 5.2 -36.8°
Enters shadow 23:07:50 19° 58° (ENE) 1,830 4.2 -36.7°
